Regional Weather Roundup
Issued by NWS Mt. Holly, NJ

Home | Current Version | Previous Version | Text Only | Print | Product List | Glossary On
Versions: 1 2 3 4 5 6 7 8 9 10 11 12 13 14 15 16 17 18 19 20 21 22 23 24 25 26 27 28 29 30 31 32 33 34 35 36 37 38 39 40 41 42 43 44 45 46 47 48 49 50
000
ASUS41 KPHI 280410
RWRPHI

REGIONAL WEATHER ROUNDUP
NATIONAL WEATHER SERVICE MOUNT HOLLY NJ
1200 AM EDT THU AUG 28 2014

NOTE:  "FAIR" INDICATES FEW OR NO CLOUDS BELOW 12,000 FEET WITH NO
SIGNIFICANT WEATHER AND/OR OBSTRUCTIONS TO VISIBILITY.

 * = STATION DOES NOT REPORT PRECIPITATION (E.G. RAIN, SNOW, ETC.)
        OR FOG.

NJZ015>026-280500-
SOUTHERN NEW JERSEY

CITY           SKY/WX    TMP DP  RH WIND       PRES   REMARKS
POMONA         CLEAR     71  66  84 CALM      29.88F
RIO GRANDE*    CLEAR     72  64  78 SW3       29.91F
MILLVILLE      CLEAR     68  65  90 W5        29.89F
WRIGHTSTOWN    CLEAR     72  67  84 W3        29.86F
MOUNT HOLLY    CLEAR     74  66  76 SW3       29.88F
TRENTON        MOCLDY    77  68  73 NW5       29.88S

$$
NJZ001>014-280500-
NORTHERN NEW JERSEY

CITY           SKY/WX    TMP DP  RH WIND       PRES   REMARKS
SUSSEX         MOCLDY    76  68  76 NW3       29.92R
ANDOVER*         N/A     75  67  76 VRB3      29.93R
MORRISTOWN     PTCLDY    81  68  65 N6        29.89R
NEWARK         MOCLDY    78  67  68 N5        29.87S
TETERBORO      PTCLDY    79  64  60 CALM      29.86S
CALDWELL       MOCLDY    78  67  68 CALM      29.89R
SOMERVILLE     MOCLDY    78  68  71 N5        29.87S
ALLAIRE*       MOCLDY    73  63  68 SW6       29.87F
TOMS RIVER*    PTCLDY    70  64  83 CALM      29.88F

$$
PAZ043-044-047-054-055-060>062-066>071-280500-
EASTERN PENNSYLVANIA

CITY           SKY/WX    TMP DP  RH WIND       PRES   REMARKS
PHILADELPHIA   PTCLDY    77  67  71 W8        29.89F
NORTH PHILA    PTCLDY    80  64  58 W9        29.89F
BLUE BELL      PTCLDY    77  68  73 CALM      29.89S
DOYLESTOWN     PTCLDY    76  69  79 CALM      29.90R
QUAKERTOWN*    MOCLDY    75  68  78 MISG      29.92S
POTTSTOWN      PTCLDY    76  66  71 NW6       29.92S
LANCASTER      PTCLDY    73  68  84 CALM      29.92S
COATESVILLE    MOCLDY    72  72 100 NW6       29.93S
READING        MOCLDY    75  66  73 N5        29.92R
ALLENTOWN      MOCLDY    75  69  81 CALM      29.92R
MOUNT POCONO   CLOUDY    68  62  81 NW7       29.99S
HAZLETON       LGT RAIN  70  68  94 N8        30.03R
WILKES BARRE   CLOUDY    73  63  70 N8        29.98S

$$
DEZALL-MDZ008-012-015-019-020-280500-
DELAWARE AND EASTERN MARYLAND

CITY           SKY/WX    TMP DP  RH WIND       PRES   REMARKS
WILMINGTON     PTCLDY    76  67  73 W3        29.90F
DOVER          CLEAR     72  67  85 SW6       29.88F
GEORGETOWN     CLEAR     70  64  81 S9        29.91F
EASTON         CLEAR     74  70  87 CALM      29.94S
PATUXENT       CLEAR     74  67  78 SW7       29.91S
OCEAN CITY     CLEAR     64  62  93 CALM      29.90F
WALLOPS ISLAND CLEAR     70  65  84 CALM      29.91F
CAMBRIDGE      CLEAR     72  68  88 CALM      29.91S
SALISBURY      CLEAR     71  64  78 CALM      29.91F

$$
PAZ001-021-NYZ056-072-MDZ011-DCZ001-280500-
OTHER NEARBY LOCATIONS

CITY           SKY/WX    TMP DP  RH WIND       PRES   REMARKS
HARRISBURG     MOCLDY    79  70  74 N7        29.92R
STATE COLLEGE  MOCLDY    70  63  77 N5        30.02R
WILLIAMSPORT   PTCLDY    74  61  63 N3        29.97S
BINGHAMTON     CLEAR     61  55  81 N6        30.03S
NEW YORK CITY  MOCLDY    77  66  68 N3        29.90F
BALTIMORE      MOCLDY    75  68  78 W3        29.90F
WASHINGTON DC  PTCLDY    81  65  58 SW5       29.92S

$$


USA.gov is the U.S. government's official web portal to all federal, state and local government web resources and services.